Time,TemperatureF,DewpointF,PressureIn,WindDirection,WindDirectionDegrees,WindSpeedMPH,WindSpeedGustMPH,Humidity,HourlyPrecipIn,Conditions,Clouds,dailyrainin,SolarRadiationWatts/m^2,SoftwareType,DateUTC
2013-02-02 00:00:00,21.0,3.4,30.06,WNW,299,3.5,3.5,46,0.00,CLR,FEW,0.00,0.0,WeatherDisplay:10.37,2013-02-02 05:00:00,
2013-02-02 00:01:00,21.0,3.4,30.06,NW,310,3.5,3.5,46,0.00,CLR,FEW,0.00,0.0,WeatherDisplay:10.37,2013-02-02 05:01:00,
2013-02-02 00:06:00,20.8,3.3,30.06,NW,321,3.5,3.5,46,0.00,CLR,FEW,0.00,0.0,WeatherDisplay:10.37,2013-02-02 05:06:00,
2013-02-02 00:11:00,20.8,3.3,30.06,NW,314,4.6,4.6,46,0.00,CLR,FEW,0.00,0.0,WeatherDisplay:10.37,2013-02-02 05:11:00,
2013-02-02 00:16:00,20.8,3.3,30.06,WSW,245,5.8,5.8,46,0.00,CLR,FEW,0.00,0.0,WeatherDisplay:10.37,2013-02-02 05:16:00,
2013-02-02 00:21:00,20.8,3.3,30.06,West,278,3.5,3.5,46,0.00,CLR,FEW,0.00,0.0,WeatherDisplay:10.37,2013-02-02 05:21:00,
2013-02-02 00:26:00,20.7,3.1,30.06,WSW,238,3.5,3.5,46,0.00,CLR,FEW,0.00,0.0,WeatherDisplay:10.37,2013-02-02 05:26:00,
2013-02-02 00:31:00,20.7,3.1,30.06,West,280,5.8,5.8,46,0.00,CLR,FEW,0.00,0.0,WeatherDisplay:10.37,2013-02-02 05:31:00,
2013-02-02 00:36:00,20.7,3.1,30.06,WSW,252,3.5,3.5,46,0.00,CLR,FEW,0.00,0.0,WeatherDisplay:10.37,2013-02-02 05:36:00,
2013-02-02 00:41:00,20.5,2.9,30.06,WSW,237,5.8,5.8,46,0.00,CLR,FEW,0.00,0.0,WeatherDisplay:10.37,2013-02-02 05:41:00,
2013-02-02 00:46:00,20.5,2.9,30.06,WNW,297,5.8,5.8,46,0.00,CLR,FEW,0.00,0.0,WeatherDisplay:10.37,2013-02-02 05:46:00,
2013-02-02 00:51:00,20.3,2.8,30.06,West,264,8.1,8.1,46,0.00,CLR,FEW,0.00,0.0,WeatherDisplay:10.37,2013-02-02 05:51:00,
2013-02-02 00:56:00,20.5,2.9,30.08,WNW,287,5.8,5.8,46,0.00,CLR,FEW,0.00,0.0,WeatherDisplay:10.37,2013-02-02 05:56:00,
2013-02-02 01:01:00,20.5,2.9,30.08,WNW,283,5.8,5.8,46,0.00,CLR,FEW,0.00,0.0,WeatherDisplay:10.37,2013-02-02 06:01:00,
2013-02-02 01:06:00,20.5,2.9,30.08,West,276,4.6,4.6,46,0.00,CLR,FEW,0.00,0.0,WeatherDisplay:10.37,2013-02-02 06:06:00,
2013-02-02 01:11:00,20.3,2.8,30.08,NW,305,2.3,0.0,46,0.00,CLR,FEW,0.00,0.0,WeatherDisplay:10.37,2013-02-02 06:11:00,
2013-02-02 01:16:00,20.3,2.8,30.08,West,267,5.8,5.8,46,0.00,CLR,FEW,0.00,0.0,WeatherDisplay:10.37,2013-02-02 06:16:00,
2013-02-02 01:21:00,20.3,2.8,30.08,West,280,9.2,9.2,46,0.00,CLR,FEW,0.00,0.0,WeatherDisplay:10.37,2013-02-02 06:21:00,
2013-02-02 01:26:00,20.3,2.8,30.08,WSW,242,5.8,0.0,46,0.00,CLR,FEW,0.00,0.0,WeatherDisplay:10.37,2013-02-02 06:26:00,
2013-02-02 01:31:00,20.3,2.8,30.08,WNW,284,2.3,2.7,46,0.00,CLR,FEW,0.00,0.0,WeatherDisplay:10.37,2013-02-02 06:31:00,
2013-02-02 01:36:00,20.3,2.8,30.08,WNW,300,6.9,0.0,46,0.00,CLR,FEW,0.00,0.0,WeatherDisplay:10.37,2013-02-02 06:36:00,
2013-02-02 01:41:00,20.5,2.9,30.08,West,273,3.5,3.5,46,0.00,CLR,FEW,0.00,0.0,WeatherDisplay:10.37,2013-02-02 06:41:00,
2013-02-02 01:46:00,20.3,2.8,30.08,SW,226,4.6,4.6,46,0.00,CLR,FEW,0.00,0.0,WeatherDisplay:10.37,2013-02-02 06:46:00,
2013-02-02 01:51:00,20.3,2.8,30.08,WNW,295,0.0,0.0,46,0.00,CLR,FEW,0.00,0.0,WeatherDisplay:10.37,2013-02-02 06:51:00,
2013-02-02 01:56:00,20.3,2.8,30.08,WNW,292,5.8,5.8,46,0.00,CLR,FEW,0.00,0.0,WeatherDisplay:10.37,2013-02-02 06:56:00,
2013-02-02 02:01:00,20.3,2.8,30.08,WNW,292,4.6,4.6,46,0.00,CLR,FEW,0.00,0.0,WeatherDisplay:10.37,2013-02-02 07:01:00,
2013-02-02 02:06:00,20.5,2.9,30.08,NW,317,3.5,4.5,46,0.00,CLR,FEW,0.00,0.0,WeatherDisplay:10.37,2013-02-02 07:06:00,
2013-02-02 02:11:00,20.3,2.8,30.11,WNW,299,8.1,8.1,46,0.00,CLR,FEW,0.00,0.0,WeatherDisplay:10.37,2013-02-02 07:11:00,
2013-02-02 02:16:00,20.5,2.9,30.11,WNW,289,11.5,11.5,46,0.00,CLR,FEW,0.00,0.0,WeatherDisplay:10.37,2013-02-02 07:16:00,
2013-02-02 02:21:00,20.7,3.1,30.11,NW,326,8.1,8.1,46,0.00,CLR,FEW,0.00,0.0,WeatherDisplay:10.37,2013-02-02 07:21:00,
2013-02-02 02:26:00,20.8,3.3,30.11,WSW,257,6.3,6.3,46,0.00,CLR,FEW,0.00,0.0,WeatherDisplay:10.37,2013-02-02 07:26:00,
2013-02-02 02:31:00,20.8,3.3,30.11,WSW,257,5.8,5.8,46,0.00,CLR,FEW,0.00,0.0,WeatherDisplay:10.37,2013-02-02 07:31:00,
2013-02-02 02:36:00,20.8,3.3,30.11,NW,306,9.2,9.2,46,0.00,CLR,FEW,0.00,0.0,WeatherDisplay:10.37,2013-02-02 07:36:00,
2013-02-02 02:41:00,20.8,3.3,30.11,NW,320,3.5,4.5,46,0.00,CLR,FEW,0.00,0.0,WeatherDisplay:10.37,2013-02-02 07:41:00,
2013-02-02 02:46:00,20.8,3.3,30.11,WNW,299,5.8,5.8,46,0.00,CLR,FEW,0.00,0.0,WeatherDisplay:10.37,2013-02-02 07:46:00,
2013-02-02 02:51:00,21.0,3.4,30.11,NW,323,8.1,8.1,46,0.00,CLR,FEW,0.00,0.0,WeatherDisplay:10.37,2013-02-02 07:51:00,
2013-02-02 02:56:00,20.8,3.3,30.11,NW,310,8.1,8.1,46,0.00,CLR,FEW,0.00,0.0,WeatherDisplay:10.37,2013-02-02 07:56:00,
2013-02-02 03:01:00,20.8,3.3,30.11,WNW,290,10.4,10.4,46,0.00,CLR,FEW,0.00,0.0,WeatherDisplay:10.37,2013-02-02 08:01:00,
2013-02-02 03:06:00,20.8,3.3,30.11,WNW,297,10.4,10.4,46,0.00,CLR,FEW,0.00,0.0,WeatherDisplay:10.37,2013-02-02 08:06:00,
2013-02-02 03:11:00,20.8,3.3,30.11,NW,311,8.1,8.1,46,0.00,CLR,FEW,0.00,0.0,WeatherDisplay:10.37,2013-02-02 08:11:00,
2013-02-02 03:16:00,20.8,3.3,30.11,WNW,291,10.4,10.4,46,0.00,CLR,FEW,0.00,0.0,WeatherDisplay:10.37,2013-02-02 08:16:00,
2013-02-02 03:21:00,20.7,3.1,30.11,West,267,10.4,10.4,46,0.00,CLR,FEW,0.00,0.0,WeatherDisplay:10.37,2013-02-02 08:21:00,
2013-02-02 03:26:00,20.7,3.1,30.11,WNW,285,8.1,8.1,46,0.00,CLR,FEW,0.00,0.0,WeatherDisplay:10.37,2013-02-02 08:26:00,
2013-02-02 03:31:00,20.7,3.1,30.11,NW,317,5.8,5.8,46,0.00,CLR,FEW,0.00,0.0,WeatherDisplay:10.37,2013-02-02 08:31:00,
2013-02-02 03:36:00,20.7,3.1,30.11,NNW,340,5.8,5.8,46,0.00,CLR,FEW,0.00,0.0,WeatherDisplay:10.37,2013-02-02 08:36:00,
2013-02-02 03:41:00,20.7,3.1,30.11,NNW,330,8.1,8.1,46,0.00,CLR,FEW,0.00,0.0,WeatherDisplay:10.37,2013-02-02 08:41:00,
2013-02-02 03:46:00,20.5,2.9,30.11,NW,304,5.8,5.8,46,0.00,CLR,FEW,0.00,0.0,WeatherDisplay:10.37,2013-02-02 08:46:00,
2013-02-02 03:51:00,20.5,2.9,30.11,West,279,9.2,9.2,46,0.00,CLR,FEW,0.00,0.0,WeatherDisplay:10.37,2013-02-02 08:51:00,
2013-02-02 03:56:00,20.3,2.8,30.11,NW,304,3.5,3.5,46,0.00,CLR,FEW,0.00,0.0,WeatherDisplay:10.37,2013-02-02 08:56:00,
2013-02-02 04:01:00,20.3,2.8,30.11,WNW,297,5.8,5.8,46,0.00,CLR,FEW,0.00,0.0,WeatherDisplay:10.37,2013-02-02 09:01:00,
2013-02-02 04:06:00,20.1,2.6,30.11,West,279,0.0,0.0,46,0.00,CLR,FEW,0.00,0.0,WeatherDisplay:10.37,2013-02-02 09:06:00,
2013-02-02 04:11:00,20.1,2.6,30.14,WNW,286,5.8,5.8,46,0.00,CLR,FEW,0.00,0.0,WeatherDisplay:10.37,2013-02-02 09:11:00,
2013-02-02 04:16:00,19.9,2.5,30.14,West,271,9.2,9.2,46,0.00,CLR,FEW,0.00,0.0,WeatherDisplay:10.37,2013-02-02 09:16:00,
2013-02-02 04:21:00,19.9,2.5,30.14,North,5,5.8,5.8,46,0.00,CLR,FEW,0.00,0.0,WeatherDisplay:10.37,2013-02-02 09:21:00,
2013-02-02 04:26:00,19.9,2.5,30.14,NW,320,5.8,5.8,46,0.00,CLR,FEW,0.00,0.0,WeatherDisplay:10.37,2013-02-02 09:26:00,
2013-02-02 04:31:00,19.9,2.5,30.14,NNW,328,3.5,3.6,46,0.00,CLR,FEW,0.00,0.0,WeatherDisplay:10.37,2013-02-02 09:31:00,
2013-02-02 04:36:00,19.8,2.3,30.14,NW,326,3.5,0.0,46,0.00,CLR,FEW,0.00,0.0,WeatherDisplay:10.37,2013-02-02 09:36:00,
2013-02-02 04:41:00,19.6,2.1,30.14,NW,310,5.8,5.8,46,0.00,CLR,FEW,0.00,0.0,WeatherDisplay:10.37,2013-02-02 09:41:00,
2013-02-02 04:46:00,19.6,2.1,30.14,West,259,3.5,3.5,46,0.00,CLR,FEW,0.00,0.0,WeatherDisplay:10.37,2013-02-02 09:46:00,
2013-02-02 04:51:00,19.6,2.1,30.14,West,273,5.8,5.8,46,0.00,CLR,FEW,0.00,0.0,WeatherDisplay:10.37,2013-02-02 09:51:00,
2013-02-02 04:56:00,19.4,2.0,30.14,WNW,300,8.1,8.1,46,0.00,CLR,FEW,0.00,0.0,WeatherDisplay:10.37,2013-02-02 09:56:00,
2013-02-02 05:01:00,19.2,1.8,30.14,NW,305,3.6,3.6,46,0.00,CLR,FEW,0.00,0.0,WeatherDisplay:10.37,2013-02-02 10:01:00,
2013-02-02 05:06:00,19.2,1.8,30.14,WNW,289,3.5,4.5,46,0.00,CLR,FEW,0.00,0.0,WeatherDisplay:10.37,2013-02-02 10:06:00,
2013-02-02 05:11:00,19.0,1.6,30.14,NNW,338,3.5,3.5,46,0.00,CLR,FEW,0.00,0.0,WeatherDisplay:10.37,2013-02-02 10:11:00,
2013-02-02 05:16:00,18.9,1.5,30.14,NW,317,5.8,5.8,46,0.00,CLR,FEW,0.00,0.0,WeatherDisplay:10.37,2013-02-02 10:16:00,
2013-02-02 05:21:00,18.9,1.5,30.14,NNW,338,4.6,4.6,46,0.00,CLR,FEW,0.00,0.0,WeatherDisplay:10.37,2013-02-02 10:21:00,
2013-02-02 05:26:00,18.7,1.3,30.14,NW,310,5.8,5.8,46,0.00,CLR,FEW,0.00,0.0,WeatherDisplay:10.37,2013-02-02 10:26:00,
2013-02-02 05:31:00,18.9,1.5,30.14,NNW,344,3.5,3.6,46,0.00,CLR,FEW,0.00,0.0,WeatherDisplay:10.37,2013-02-02 10:31:00,
2013-02-02 05:36:00,18.7,1.3,30.14,WNW,297,4.6,4.6,46,0.00,CLR,FEW,0.00,0.0,WeatherDisplay:10.37,2013-02-02 10:36:00,
2013-02-02 05:41:00,18.7,1.3,30.14,NW,317,3.5,3.5,46,0.00,CLR,FEW,0.00,0.0,WeatherDisplay:10.37,2013-02-02 10:41:00,
2013-02-02 05:46:00,18.5,1.1,30.14,WNW,282,4.6,4.6,46,0.00,CLR,FEW,0.00,0.0,WeatherDisplay:10.37,2013-02-02 10:46:00,
2013-02-02 05:51:00,18.5,1.1,30.14,WNW,296,3.5,3.5,46,0.00,CLR,FEW,0.00,0.0,WeatherDisplay:10.37,2013-02-02 10:51:00,
2013-02-02 05:56:00,18.3,1.0,30.17,WNW,297,5.8,5.8,46,0.00,CLR,FEW,0.00,0.0,WeatherDisplay:10.37,2013-02-02 10:56:00,
2013-02-02 06:01:00,18.3,1.0,30.17,NW,304,5.8,5.8,46,0.00,CLR,FEW,0.00,0.0,WeatherDisplay:10.37,2013-02-02 11:01:00,
2013-02-02 06:06:00,18.3,1.0,30.17,NW,313,3.5,3.5,46,0.00,CLR,FEW,0.00,0.0,WeatherDisplay:10.37,2013-02-02 11:06:00,
2013-02-02 06:11:00,18.1,0.8,30.17,NW,308,0.0,0.0,46,0.00,CLR,FEW,0.00,0.0,WeatherDisplay:10.37,2013-02-02 11:11:00,
2013-02-02 06:16:00,17.8,0.5,30.17,WNW,292,0.0,0.0,46,0.00,CLR,FEW,0.00,0.0,WeatherDisplay:10.37,2013-02-02 11:16:00,
2013-02-02 06:21:00,17.8,0.5,30.17,WNW,292,0.0,0.0,46,0.00,CLR,FEW,0.00,0.0,WeatherDisplay:10.37,2013-02-02 11:21:00,
2013-02-02 06:26:00,17.6,1.2,30.17,WNW,292,0.0,0.0,48,0.00,CLR,FEW,0.00,0.0,WeatherDisplay:10.37,2013-02-02 11:26:00,
2013-02-02 06:31:00,17.2,0.9,30.17,WNW,292,0.0,0.0,48,0.00,CLR,FEW,0.00,0.0,WeatherDisplay:10.37,2013-02-02 11:31:00,
2013-02-02 06:36:00,17.1,0.7,30.17,WNW,293,0.0,0.0,48,0.00,CLR,FEW,0.00,0.0,WeatherDisplay:10.37,2013-02-02 11:36:00,
2013-02-02 06:41:00,16.9,0.5,30.17,WNW,287,0.0,0.0,48,0.00,CLR,FEW,0.00,0.0,WeatherDisplay:10.37,2013-02-02 11:41:00,
2013-02-02 06:46:00,16.9,0.5,30.17,WNW,287,0.0,0.0,48,0.00,CLR,FEW,0.00,0.0,WeatherDisplay:10.37,2013-02-02 11:46:00,
2013-02-02 06:51:00,16.7,0.4,30.17,WNW,287,0.0,0.0,48,0.00,CLR,FEW,0.00,0.0,WeatherDisplay:10.37,2013-02-02 11:51:00,
2013-02-02 06:56:00,16.5,0.2,30.20,WNW,287,0.0,0.0,48,0.00,CLR,FEW,0.00,0.0,WeatherDisplay:10.37,2013-02-02 11:56:00,
2013-02-02 07:01:00,16.5,0.2,30.20,WNW,287,0.0,0.0,48,0.00,CLR,FEW,0.00,0.0,WeatherDisplay:10.37,2013-02-02 12:01:00,
2013-02-02 07:06:00,16.3,0.0,30.20,WNW,287,0.0,0.0,48,0.00,CLR,FEW,0.00,0.0,WeatherDisplay:10.37,2013-02-02 12:06:00,
2013-02-02 07:11:00,16.2,-0.1,30.17,WNW,287,0.0,0.0,48,0.00,CLR,FEW,0.00,0.0,WeatherDisplay:10.37,2013-02-02 12:11:00,
2013-02-02 07:16:00,16.2,-0.1,30.17,WNW,287,0.0,0.0,48,0.00,FEW,,0.00,0.0,WeatherDisplay:10.37,2013-02-02 12:16:00,
2013-02-02 07:21:00,16.0,-0.3,30.17,WNW,286,0.0,0.0,48,0.00,FEW,,0.00,0.0,WeatherDisplay:10.37,2013-02-02 12:21:00,
2013-02-02 07:26:00,16.0,-0.3,30.17,WNW,288,0.0,0.0,48,0.00,FEW,,0.00,0.0,WeatherDisplay:10.37,2013-02-02 12:26:00,
2013-02-02 07:31:00,16.0,-0.3,30.17,WNW,287,0.0,0.0,48,0.00,FEW,,0.00,0.0,WeatherDisplay:10.37,2013-02-02 12:31:00,
2013-02-02 07:36:00,16.2,-0.1,30.17,WNW,287,0.0,0.0,48,0.00,FEW,,0.00,0.5,WeatherDisplay:10.37,2013-02-02 12:36:00,
2013-02-02 07:41:00,16.2,-0.1,30.20,WNW,285,0.0,0.0,48,0.00,FEW,,0.00,2.5,WeatherDisplay:10.37,2013-02-02 12:41:00,
2013-02-02 07:46:00,16.3,0.0,30.20,WNW,285,0.0,0.0,48,0.00,FEW,,0.00,4.2,WeatherDisplay:10.37,2013-02-02 12:46:00,
2013-02-02 07:51:00,16.5,0.2,30.20,WNW,294,0.0,0.0,48,0.00,FEW,,0.00,6.0,WeatherDisplay:10.37,2013-02-02 12:51:00,
2013-02-02 07:56:00,16.7,0.4,30.17,WSW,254,5.8,5.8,48,0.00,FEW,,0.00,7.8,WeatherDisplay:10.37,2013-02-02 12:56:00,
2013-02-02 08:01:00,16.9,0.5,30.17,North,352,5.8,5.8,48,0.00,FEW,,0.00,9.6,WeatherDisplay:10.37,2013-02-02 13:01:00,
2013-02-02 08:06:00,17.6,1.2,30.17,WNW,288,4.6,4.6,48,0.00,FEW,,0.00,10.9,WeatherDisplay:10.37,2013-02-02 13:06:00,
2013-02-02 08:11:00,18.3,1.0,30.20,WSW,256,8.1,8.1,46,0.00,FEW,,0.00,12.3,WeatherDisplay:10.37,2013-02-02 13:11:00,
2013-02-02 08:16:00,18.7,1.3,30.20,NW,322,4.6,4.6,46,0.00,SCT,FEW,0.00,13.6,WeatherDisplay:10.37,2013-02-02 13:16:00,
2013-02-02 08:21:00,19.2,1.8,30.20,West,269,5.8,5.8,46,0.00,SCT,FEW,0.00,14.6,WeatherDisplay:10.37,2013-02-02 13:21:00,
2013-02-02 08:26:00,19.9,2.5,30.20,NW,304,3.5,3.5,46,0.00,SCT,FEW,0.00,15.9,WeatherDisplay:10.37,2013-02-02 13:26:00,
2013-02-02 08:31:00,20.5,2.9,30.20,NNW,335,0.0,0.0,46,0.00,SCT,FEW,0.00,16.5,WeatherDisplay:10.37,2013-02-02 13:31:00,
2013-02-02 08:36:00,20.8,3.3,30.20,West,265,5.8,5.8,46,0.00,SCT,FEW,0.00,17.5,WeatherDisplay:10.37,2013-02-02 13:36:00,
2013-02-02 08:41:00,21.2,3.6,30.20,WSW,257,3.5,4.5,46,0.00,SCT,FEW,0.00,18.1,WeatherDisplay:10.37,2013-02-02 13:41:00,
2013-02-02 08:46:00,21.6,3.9,30.20,WNW,302,0.0,0.0,46,0.00,SCT,FEW,0.00,19.0,WeatherDisplay:10.37,2013-02-02 13:46:00,
2013-02-02 08:51:00,22.1,4.4,30.20,NW,311,0.0,0.0,46,0.00,SCT,FEW,0.00,19.4,WeatherDisplay:10.37,2013-02-02 13:51:00,
2013-02-02 08:56:00,22.6,4.9,30.23,WSW,253,9.2,9.2,46,0.00,SCT,FEW,0.00,19.6,WeatherDisplay:10.37,2013-02-02 13:56:00,
2013-02-02 09:01:00,23.0,5.3,30.23,WSW,255,5.8,5.8,46,0.00,SCT,FEW,0.00,20.1,WeatherDisplay:10.37,2013-02-02 14:01:00,
2013-02-02 09:06:00,23.2,4.9,30.23,NW,325,10.4,10.4,45,0.00,SCT,FEW,0.00,20.9,WeatherDisplay:10.37,2013-02-02 14:06:00,
2013-02-02 09:11:00,23.5,5.3,30.20,WNW,282,3.5,3.5,45,0.00,SCT,FEW,0.00,21.6,WeatherDisplay:10.37,2013-02-02 14:11:00,
2013-02-02 09:16:00,23.7,5.4,30.20,WNW,294,8.1,8.1,45,0.00,SCT,FEW,0.00,21.8,WeatherDisplay:10.37,2013-02-02 14:16:00,
2013-02-02 09:21:00,24.3,5.9,30.20,NNW,346,5.8,5.8,45,0.00,SCT,FEW,0.00,22.0,WeatherDisplay:10.37,2013-02-02 14:21:00,
2013-02-02 09:26:00,24.4,6.1,30.20,WSW,245,3.5,3.5,45,0.00,SCT,FEW,0.00,22.5,WeatherDisplay:10.37,2013-02-02 14:26:00,
2013-02-02 09:31:00,24.4,6.1,30.20,West,259,5.8,5.8,45,0.00,SCT,FEW,0.00,23.0,WeatherDisplay:10.37,2013-02-02 14:31:00,
2013-02-02 09:36:00,24.6,6.3,30.20,WNW,283,9.2,9.2,45,0.00,SCT,FEW,0.00,23.5,WeatherDisplay:10.37,2013-02-02 14:36:00,
2013-02-02 09:41:00,24.4,6.1,30.20,WNW,291,8.1,8.1,45,0.00,SCT,FEW,0.00,24.4,WeatherDisplay:10.37,2013-02-02 14:41:00,
2013-02-02 09:46:00,24.6,6.3,30.20,WNW,286,8.1,8.1,45,0.00,SCT,FEW,0.00,25.3,WeatherDisplay:10.37,2013-02-02 14:46:00,
2013-02-02 09:51:00,24.6,6.3,30.20,NNW,329,8.1,8.1,45,0.00,SCT,FEW,0.00,26.3,WeatherDisplay:10.37,2013-02-02 14:51:00,
2013-02-02 09:56:00,25.0,6.6,30.20,West,266,5.4,5.4,45,0.00,SCT,FEW,0.00,25.9,WeatherDisplay:10.37,2013-02-02 14:56:00,
2013-02-02 10:01:00,25.0,6.6,30.20,West,277,10.4,10.4,45,0.00,SCT,FEW,0.00,26.8,WeatherDisplay:10.37,2013-02-02 15:01:00,
2013-02-02 10:06:00,25.0,6.6,30.20,West,266,8.1,8.1,45,0.00,SCT,FEW,0.00,27.6,WeatherDisplay:10.37,2013-02-02 15:06:00,
2013-02-02 10:11:00,25.2,6.8,30.20,WNW,303,3.5,3.5,45,0.00,SCT,FEW,0.00,27.7,WeatherDisplay:10.37,2013-02-02 15:11:00,
2013-02-02 10:16:00,25.3,6.9,30.20,NW,310,5.8,5.8,45,0.00,SCT,FEW,0.00,27.8,WeatherDisplay:10.37,2013-02-02 15:16:00,
2013-02-02 10:21:00,25.5,7.1,30.20,West,259,5.8,5.8,45,0.00,SCT,FEW,0.00,27.8,WeatherDisplay:10.37,2013-02-02 15:21:00,
2013-02-02 10:26:00,25.5,7.1,30.20,WSW,258,8.1,8.1,45,0.00,SCT,FEW,0.00,28.5,WeatherDisplay:10.37,2013-02-02 15:26:00,
2013-02-02 10:31:00,25.9,7.4,30.20,WSW,241,5.8,0.0,45,0.00,SCT,FEW,0.00,27.6,WeatherDisplay:10.37,2013-02-02 15:31:00,
2013-02-02 10:36:00,26.2,7.8,30.20,WSW,256,5.8,5.8,45,0.00,SCT,FEW,0.00,26.6,WeatherDisplay:10.37,2013-02-02 15:36:00,
2013-02-02 10:41:00,26.8,7.8,30.20,West,271,4.9,4.9,44,0.00,SCT,FEW,0.00,24.6,WeatherDisplay:10.37,2013-02-02 15:41:00,
2013-02-02 10:46:00,26.8,7.8,30.20,SW,218,8.1,8.1,44,0.00,SCT,FEW,0.00,25.1,WeatherDisplay:10.37,2013-02-02 15:46:00,
2013-02-02 10:51:00,26.6,8.1,30.20,WSW,241,8.1,8.1,45,0.00,SCT,FEW,0.00,26.5,WeatherDisplay:10.37,2013-02-02 15:51:00,
2013-02-02 10:56:00,26.2,7.8,30.20,SSW,209,3.5,3.5,45,0.00,SCT,FEW,0.00,27.9,WeatherDisplay:10.37,2013-02-02 15:56:00,
2013-02-02 11:01:00,26.2,7.8,30.20,SSW,197,5.8,5.8,45,0.00,SCT,FEW,0.00,29.3,WeatherDisplay:10.37,2013-02-02 16:01:00,
2013-02-02 11:06:00,26.2,7.8,30.20,SW,232,4.6,4.6,45,0.00,SCT,FEW,0.00,28.8,WeatherDisplay:10.37,2013-02-02 16:06:00,
2013-02-02 11:11:00,26.6,8.1,30.17,South,185,8.1,8.1,45,0.00,SCT,FEW,0.00,29.3,WeatherDisplay:10.37,2013-02-02 16:11:00,
2013-02-02 11:16:00,26.8,7.8,30.17,WSW,240,5.8,5.8,44,0.00,CLR,FEW,0.00,27.8,WeatherDisplay:10.37,2013-02-02 16:16:00,
2013-02-02 11:21:00,26.8,7.8,30.17,WSW,242,5.8,5.8,44,0.00,CLR,FEW,0.00,28.1,WeatherDisplay:10.37,2013-02-02 16:21:00,
2013-02-02 11:26:00,26.8,7.8,30.17,WSW,251,5.8,5.8,44,0.00,CLR,FEW,0.00,28.5,WeatherDisplay:10.37,2013-02-02 16:26:00,
2013-02-02 11:31:00,27.3,8.2,30.17,WNW,292,4.6,5.4,44,0.00,CLR,FEW,0.00,25.8,WeatherDisplay:10.37,2013-02-02 16:31:00,
2013-02-02 11:36:00,27.7,8.6,30.17,WSW,241,5.8,5.8,44,0.00,CLR,FEW,0.00,24.1,WeatherDisplay:10.37,2013-02-02 16:36:00,
2013-02-02 11:41:00,27.7,8.6,30.17,South,173,9.2,9.2,44,0.00,CLR,FEW,0.00,24.3,WeatherDisplay:10.37,2013-02-02 16:41:00,
2013-02-02 11:46:00,27.5,8.4,30.17,South,180,5.8,5.8,44,0.00,CLR,FEW,0.00,25.5,WeatherDisplay:10.37,2013-02-02 16:46:00,
2013-02-02 11:51:00,27.7,8.6,30.17,WNW,302,3.5,3.5,44,0.00,CLR,FEW,0.00,24.7,WeatherDisplay:10.37,2013-02-02 16:51:00,
2013-02-02 11:56:00,28.2,9.1,30.14,SSE,157,5.8,5.8,44,0.00,CLR,FEW,0.00,22.7,WeatherDisplay:10.37,2013-02-02 16:56:00,
2013-02-02 12:01:00,28.6,9.4,30.14,WNW,292,5.8,5.8,44,0.00,CLR,FEW,0.00,19.8,WeatherDisplay:10.37,2013-02-02 17:01:00,
2013-02-02 12:06:00,28.4,9.2,30.14,SW,229,3.5,4.5,44,0.00,CLR,FEW,0.00,20.9,WeatherDisplay:10.37,2013-02-02 17:06:00,
2013-02-02 12:11:00,28.4,9.2,30.14,WSW,238,5.8,5.8,44,0.00,CLR,FEW,0.00,21.0,WeatherDisplay:10.37,2013-02-02 17:11:00,
2013-02-02 12:16:00,28.4,9.2,30.14,South,186,5.8,5.8,44,0.00,BKN,FEW,0.00,21.0,WeatherDisplay:10.37,2013-02-02 17:16:00,
2013-02-02 12:21:00,28.6,9.4,30.14,WSW,249,5.4,0.0,44,0.00,BKN,FEW,0.00,20.0,WeatherDisplay:10.37,2013-02-02 17:21:00,
2013-02-02 12:26:00,29.3,10.1,30.14,SE,131,5.8,5.8,44,0.00,BKN,FEW,0.00,16.9,WeatherDisplay:10.37,2013-02-02 17:26:00,
2013-02-02 12:31:00,29.8,10.5,30.14,West,272,10.4,10.4,44,0.00,BKN,FEW,0.00,13.7,WeatherDisplay:10.37,2013-02-02 17:31:00,
2013-02-02 12:36:00,30.2,10.9,30.14,SW,233,9.2,9.2,44,0.00,BKN,FEW,0.00,11.6,WeatherDisplay:10.37,2013-02-02 17:36:00,
2013-02-02 12:41:00,30.2,10.9,30.11,WSW,237,10.4,10.4,44,0.00,BKN,FEW,0.00,10.5,WeatherDisplay:10.37,2013-02-02 17:41:00,
2013-02-02 12:46:00,29.7,10.4,30.11,SW,235,10.4,10.4,44,0.00,BKN,FEW,0.00,12.6,WeatherDisplay:10.37,2013-02-02 17:46:00,
2013-02-02 12:51:00,29.3,10.1,30.11,South,187,8.1,8.1,44,0.00,BKN,FEW,0.00,15.7,WeatherDisplay:10.37,2013-02-02 17:51:00,
2013-02-02 12:56:00,29.3,10.1,30.11,SSW,194,3.5,4.9,44,0.00,BKN,FEW,0.00,15.6,WeatherDisplay:10.37,2013-02-02 17:56:00,
2013-02-02 13:01:00,29.5,10.2,30.11,WSW,240,5.8,5.8,44,0.00,BKN,FEW,0.00,14.5,WeatherDisplay:10.37,2013-02-02 18:01:00,
2013-02-02 13:06:00,29.8,10.5,30.11,South,180,8.1,8.1,44,0.00,BKN,FEW,0.00,13.4,WeatherDisplay:10.37,2013-02-02 18:06:00,
2013-02-02 13:11:00,30.2,10.9,30.11,SE,127,5.8,5.8,44,0.00,BKN,FEW,0.00,10.2,WeatherDisplay:10.37,2013-02-02 18:11:00,
2013-02-02 13:16:00,30.6,11.2,30.11,West,261,8.1,8.1,44,0.00,BKN,FEW,0.00,8.1,WeatherDisplay:10.37,2013-02-02 18:16:00,
2013-02-02 13:21:00,31.1,11.7,30.11,West,271,5.8,5.8,44,0.00,BKN,FEW,0.00,5.0,WeatherDisplay:10.37,2013-02-02 18:21:00,
2013-02-02 13:26:00,30.9,11.5,30.11,SW,225,8.1,8.1,44,0.00,BKN,FEW,0.00,6.0,WeatherDisplay:10.37,2013-02-02 18:26:00,
2013-02-02 13:31:00,30.7,11.4,30.11,WNW,294,10.4,10.4,44,0.00,BKN,FEW,0.00,6.9,WeatherDisplay:10.37,2013-02-02 18:31:00,
2013-02-02 13:36:00,30.7,11.4,30.11,WSW,239,9.2,9.2,44,0.00,BKN,FEW,0.00,6.8,WeatherDisplay:10.37,2013-02-02 18:36:00,
2013-02-02 13:41:00,30.9,11.5,30.08,SW,214,8.1,8.1,44,0.00,BKN,FEW,0.00,5.8,WeatherDisplay:10.37,2013-02-02 18:41:00,
2013-02-02 13:46:00,30.9,11.5,30.08,WSW,258,8.1,8.1,44,0.00,BKN,FEW,0.00,5.7,WeatherDisplay:10.37,2013-02-02 18:46:00,
2013-02-02 13:51:00,30.9,11.5,30.08,SW,219,9.2,9.2,44,0.00,BKN,FEW,0.00,5.6,WeatherDisplay:10.37,2013-02-02 18:51:00,
2013-02-02 13:56:00,31.1,11.7,30.08,SSE,168,3.5,0.0,44,0.00,BKN,FEW,0.00,4.6,WeatherDisplay:10.37,2013-02-02 18:56:00,
2013-02-02 14:01:00,31.8,12.4,30.08,SW,216,8.1,8.1,44,0.00,BKN,FEW,0.00,1.8,WeatherDisplay:10.37,2013-02-02 19:01:00,
2013-02-02 14:06:00,31.8,12.4,30.08,WSW,247,11.5,11.5,44,0.00,BKN,FEW,0.00,0.9,WeatherDisplay:10.37,2013-02-02 19:06:00,
2013-02-02 14:11:00,31.8,12.4,30.08,WSW,252,10.4,10.4,44,0.00,BKN,FEW,0.00,0.9,WeatherDisplay:10.37,2013-02-02 19:11:00,
2013-02-02 14:16:00,31.8,12.4,30.08,SW,223,8.1,8.1,44,0.00,BKN,FEW,0.00,0.0,WeatherDisplay:10.37,2013-02-02 19:16:00,
2013-02-02 14:21:00,31.1,11.7,30.08,WSW,244,5.8,5.8,44,0.00,BKN,FEW,0.00,4.2,WeatherDisplay:10.37,2013-02-02 19:21:00,
2013-02-02 14:26:00,30.6,11.2,30.06,SSE,165,8.1,8.1,44,0.00,BKN,FEW,0.00,6.5,WeatherDisplay:10.37,2013-02-02 19:26:00,
2013-02-02 14:31:00,30.2,10.9,30.06,SW,229,12.7,12.7,44,0.00,BKN,FEW,0.00,8.0,WeatherDisplay:10.37,2013-02-02 19:31:00,
2013-02-02 14:36:00,29.8,10.5,30.06,SSW,209,5.8,5.8,44,0.00,BKN,FEW,0.00,9.4,WeatherDisplay:10.37,2013-02-02 19:36:00,
2013-02-02 14:41:00,29.5,10.2,30.06,SSE,163,8.1,8.1,44,0.00,BKN,FEW,0.00,9.9,WeatherDisplay:10.37,2013-02-02 19:41:00,
2013-02-02 14:46:00,29.5,10.2,30.06,SSW,206,12.7,12.7,44,0.00,BKN,FEW,0.00,10.3,WeatherDisplay:10.37,2013-02-02 19:46:00,
2013-02-02 14:51:00,29.5,10.2,30.06,SW,233,10.4,10.4,44,0.00,BKN,FEW,0.00,10.1,WeatherDisplay:10.37,2013-02-02 19:51:00,
2013-02-02 14:56:00,29.5,10.2,30.06,South,177,8.1,8.1,44,0.00,BKN,FEW,0.00,9.7,WeatherDisplay:10.37,2013-02-02 19:56:00,
2013-02-02 15:01:00,29.3,10.1,30.06,SW,230,8.1,8.1,44,0.00,BKN,FEW,0.00,10.1,WeatherDisplay:10.37,2013-02-02 20:01:00,
2013-02-02 15:06:00,29.1,9.9,30.06,SW,214,10.4,10.4,44,0.00,BKN,FEW,0.00,10.4,WeatherDisplay:10.37,2013-02-02 20:06:00,
2013-02-02 15:11:00,29.1,9.9,30.06,SW,231,8.1,8.1,44,0.00,BKN,FEW,0.00,10.0,WeatherDisplay:10.37,2013-02-02 20:11:00,
2013-02-02 15:16:00,29.5,10.2,30.06,SSW,198,4.6,4.9,44,0.00,BKN,FEW,0.00,8.5,WeatherDisplay:10.37,2013-02-02 20:16:00,
2013-02-02 15:21:00,29.7,10.4,30.06,South,188,11.5,11.5,44,0.00,BKN,FEW,0.00,7.5,WeatherDisplay:10.37,2013-02-02 20:21:00,
2013-02-02 15:26:00,29.5,10.2,30.06,West,261,10.4,10.4,44,0.00,BKN,FEW,0.00,7.3,WeatherDisplay:10.37,2013-02-02 20:26:00,
2013-02-02 15:31:00,29.3,10.1,30.06,South,190,9.2,9.2,44,0.00,BKN,FEW,0.00,8.0,WeatherDisplay:10.37,2013-02-02 20:31:00,
2013-02-02 15:36:00,29.1,9.9,30.06,SW,229,8.1,8.1,44,0.00,BKN,FEW,0.00,8.1,WeatherDisplay:10.37,2013-02-02 20:36:00,
2013-02-02 15:41:00,28.9,9.7,30.06,SSW,204,10.4,10.4,44,0.00,BKN,FEW,0.00,8.2,WeatherDisplay:10.37,2013-02-02 20:41:00,
2013-02-02 15:46:00,28.9,9.7,30.06,South,182,8.1,8.1,44,0.00,BKN,FEW,0.00,7.8,WeatherDisplay:10.37,2013-02-02 20:46:00,
2013-02-02 15:51:00,28.8,9.6,30.06,WSW,239,9.2,9.2,44,0.00,BKN,FEW,0.00,7.8,WeatherDisplay:10.37,2013-02-02 20:51:00,
2013-02-02 15:56:00,28.8,9.6,30.06,SW,218,8.1,8.1,44,0.00,BKN,FEW,0.00,7.4,WeatherDisplay:10.37,2013-02-02 20:56:00,
2013-02-02 16:01:00,28.8,9.6,30.06,SW,223,5.8,5.8,44,0.00,BKN,FEW,0.00,6.9,WeatherDisplay:10.37,2013-02-02 21:01:00,
2013-02-02 16:06:00,28.8,9.6,30.06,SW,226,8.1,8.1,44,0.00,BKN,FEW,0.00,6.5,WeatherDisplay:10.37,2013-02-02 21:06:00,
2013-02-02 16:11:00,28.8,9.6,30.06,SW,219,8.1,8.3,44,0.00,BKN,FEW,0.00,6.1,WeatherDisplay:10.37,2013-02-02 21:11:00,
2013-02-02 16:16:00,28.6,9.4,30.06,SW,215,10.4,10.4,44,0.00,BKN,FEW,0.00,5.9,WeatherDisplay:10.37,2013-02-02 21:16:00,
2013-02-02 16:21:00,28.6,9.4,30.06,SSW,200,4.6,4.6,44,0.00,BKN,FEW,0.00,5.5,WeatherDisplay:10.37,2013-02-02 21:21:00,
2013-02-02 16:26:00,28.6,9.4,30.06,WSW,246,10.4,10.4,44,0.00,BKN,FEW,0.00,5.0,WeatherDisplay:10.37,2013-02-02 21:26:00,
2013-02-02 16:31:00,28.6,9.4,30.06,South,190,8.1,8.1,44,0.00,BKN,FEW,0.00,4.6,WeatherDisplay:10.37,2013-02-02 21:31:00,
2013-02-02 16:36:00,28.6,9.4,30.06,SW,218,5.8,5.8,44,0.00,BKN,FEW,0.00,4.1,WeatherDisplay:10.37,2013-02-02 21:36:00,
2013-02-02 16:41:00,28.4,9.2,30.03,SW,216,8.1,8.1,44,0.00,BKN,FEW,0.00,3.8,WeatherDisplay:10.37,2013-02-02 21:41:00,
2013-02-02 16:46:00,28.2,9.1,30.03,SSW,206,6.9,6.9,44,0.00,BKN,FEW,0.00,3.6,WeatherDisplay:10.37,2013-02-02 21:46:00,
2013-02-02 16:51:00,28.2,9.1,30.03,SSW,203,12.7,12.7,44,0.00,BKN,FEW,0.00,3.1,WeatherDisplay:10.37,2013-02-02 21:51:00,
2013-02-02 16:56:00,28.0,8.9,30.03,SSW,213,9.2,9.2,44,0.00,BKN,FEW,0.00,2.7,WeatherDisplay:10.37,2013-02-02 21:56:00,
2013-02-02 17:01:00,27.9,8.7,30.03,SW,227,9.2,9.2,44,0.00,BKN,FEW,0.00,2.3,WeatherDisplay:10.37,2013-02-02 22:01:00,
2013-02-02 17:06:00,27.9,8.7,30.03,SW,214,11.5,11.5,44,0.00,BKN,FEW,0.00,1.8,WeatherDisplay:10.37,2013-02-02 22:06:00,
2013-02-02 17:11:00,27.7,8.6,30.03,SSW,195,3.5,4.0,44,0.00,BKN,FEW,0.00,1.3,WeatherDisplay:10.37,2013-02-02 22:11:00,
2013-02-02 17:16:00,27.7,8.6,30.03,SW,214,8.1,8.1,44,0.00,BKN,FEW,0.00,0.9,WeatherDisplay:10.37,2013-02-02 22:16:00,
2013-02-02 17:21:00,27.5,8.4,30.03,WSW,237,8.1,8.1,44,0.00,BKN,FEW,0.00,0.4,WeatherDisplay:10.37,2013-02-02 22:21:00,
2013-02-02 17:26:00,27.3,8.2,30.03,SW,236,11.5,11.5,44,0.00,BKN,FEW,0.00,0.2,WeatherDisplay:10.37,2013-02-02 22:26:00,
2013-02-02 17:31:00,27.3,8.2,30.03,South,182,11.5,11.5,44,0.00,BKN,FEW,0.00,0.2,WeatherDisplay:10.37,2013-02-02 22:31:00,
2013-02-02 17:36:00,27.1,8.1,30.03,WSW,239,5.8,5.8,44,0.00,BKN,FEW,0.00,0.0,WeatherDisplay:10.37,2013-02-02 22:36:00,
2013-02-02 17:41:00,27.1,8.1,30.03,SSW,208,9.2,9.2,44,0.00,BKN,FEW,0.00,0.0,WeatherDisplay:10.37,2013-02-02 22:41:00,
2013-02-02 17:46:00,27.0,7.9,30.03,SSW,213,4.6,4.6,44,0.00,BKN,FEW,0.00,0.0,WeatherDisplay:10.37,2013-02-02 22:46:00,
2013-02-02 17:51:00,27.0,7.9,30.03,SW,233,5.8,5.8,44,0.00,BKN,FEW,0.00,0.0,WeatherDisplay:10.37,2013-02-02 22:51:00,
2013-02-02 17:56:00,27.0,7.9,30.03,West,272,5.8,5.8,44,0.00,BKN,FEW,0.00,0.0,WeatherDisplay:10.37,2013-02-02 22:56:00,
2013-02-02 18:01:00,26.8,7.8,30.03,SW,222,5.8,5.8,44,0.00,BKN,FEW,0.00,0.0,WeatherDisplay:10.37,2013-02-02 23:01:00,
2013-02-02 18:06:00,26.8,7.8,30.03,SW,217,4.6,4.6,44,0.00,BKN,FEW,0.00,0.0,WeatherDisplay:10.37,2013-02-02 23:06:00,
2013-02-02 18:11:00,26.8,7.8,30.03,SSW,197,8.1,8.1,44,0.00,BKN,FEW,0.00,0.0,WeatherDisplay:10.37,2013-02-02 23:11:00,
2013-02-02 18:16:00,26.6,8.1,30.03,South,191,2.3,0.0,45,0.00,BKN,FEW,0.00,0.0,WeatherDisplay:10.37,2013-02-02 23:16:00,
2013-02-02 18:21:00,26.8,7.8,30.03,SSW,209,9.2,9.2,44,0.00,BKN,FEW,0.00,0.0,WeatherDisplay:10.37,2013-02-02 23:21:00,
2013-02-02 18:26:00,26.8,7.8,30.03,SW,226,5.8,5.8,44,0.00,BKN,FEW,0.00,0.0,WeatherDisplay:10.37,2013-02-02 23:26:00,
2013-02-02 18:31:00,26.6,8.1,30.03,SSW,201,5.8,5.8,45,0.00,BKN,FEW,0.00,0.0,WeatherDisplay:10.37,2013-02-02 23:31:00,
2013-02-02 18:36:00,26.6,8.1,30.03,SSW,205,4.6,4.9,45,0.00,BKN,FEW,0.00,0.0,WeatherDisplay:10.37,2013-02-02 23:36:00,
2013-02-02 18:41:00,26.6,8.1,30.03,SSW,211,5.8,5.8,45,0.00,BKN,FEW,0.00,0.0,WeatherDisplay:10.37,2013-02-02 23:41:00,
2013-02-02 18:46:00,26.4,7.9,30.03,SSW,209,0.0,0.0,45,0.00,BKN,FEW,0.00,0.0,WeatherDisplay:10.37,2013-02-02 23:46:00,
2013-02-02 18:51:00,26.4,7.9,30.03,SSW,198,5.8,5.8,45,0.00,BKN,FEW,0.00,0.0,WeatherDisplay:10.37,2013-02-02 23:51:00,
2013-02-02 18:56:00,26.2,7.8,30.03,SW,236,5.8,5.8,45,0.00,BKN,FEW,0.00,0.0,WeatherDisplay:10.37,2013-02-02 23:56:00,
2013-02-02 19:01:00,26.2,7.8,30.03,SSW,212,6.9,6.9,45,0.00,BKN,FEW,0.00,0.0,WeatherDisplay:10.37,2013-02-03 00:01:00,
2013-02-02 19:06:00,26.2,7.8,30.03,South,182,5.8,5.8,45,0.00,BKN,FEW,0.00,0.0,WeatherDisplay:10.37,2013-02-03 00:06:00,
2013-02-02 19:11:00,26.2,7.8,30.03,SW,229,0.0,0.0,45,0.00,BKN,FEW,0.00,0.0,WeatherDisplay:10.37,2013-02-03 00:11:00,
2013-02-02 19:16:00,26.2,7.8,30.03,WSW,239,5.8,5.8,45,0.00,BKN,FEW,0.00,0.0,WeatherDisplay:10.37,2013-02-03 00:16:00,
2013-02-02 19:21:00,26.2,7.8,30.03,SW,217,3.5,3.6,45,0.00,BKN,FEW,0.00,0.0,WeatherDisplay:10.37,2013-02-03 00:21:00,
2013-02-02 19:26:00,26.2,7.8,30.03,WSW,253,4.6,4.6,45,0.00,BKN,FEW,0.00,0.0,WeatherDisplay:10.37,2013-02-03 00:26:00,
2013-02-02 19:31:00,26.2,7.8,30.03,SSW,204,5.8,5.8,45,0.00,BKN,FEW,0.00,0.0,WeatherDisplay:10.37,2013-02-03 00:31:00,
2013-02-02 19:36:00,26.2,7.8,30.03,SSW,205,3.5,0.0,45,0.00,BKN,FEW,0.00,0.0,WeatherDisplay:10.37,2013-02-03 00:36:00,
2013-02-02 19:41:00,26.1,7.6,30.03,SW,216,5.8,5.8,45,0.00,BKN,FEW,0.00,0.0,WeatherDisplay:10.37,2013-02-03 00:41:00,
2013-02-02 19:46:00,26.1,7.6,30.03,SSW,208,5.8,5.8,45,0.00,BKN,FEW,0.00,0.0,WeatherDisplay:10.37,2013-02-03 00:46:00,
2013-02-02 19:51:00,26.1,7.6,30.03,SSW,208,5.8,5.8,45,0.00,BKN,FEW,0.00,0.0,WeatherDisplay:10.37,2013-02-03 00:51:00,
2013-02-02 19:56:00,26.1,7.6,30.03,SSW,197,5.8,5.8,45,0.00,BKN,FEW,0.00,0.0,WeatherDisplay:10.37,2013-02-03 00:56:00,
2013-02-02 20:01:00,26.1,7.6,30.03,South,189,5.8,5.8,45,0.00,BKN,FEW,0.00,0.0,WeatherDisplay:10.37,2013-02-03 01:01:00,
2013-02-02 20:06:00,26.1,7.6,30.03,SW,223,0.0,0.0,45,0.00,BKN,FEW,0.00,0.0,WeatherDisplay:10.37,2013-02-03 01:06:00,
2013-02-02 20:11:00,26.1,7.6,30.03,SSE,162,5.8,5.8,45,0.00,BKN,FEW,0.00,0.0,WeatherDisplay:10.37,2013-02-03 01:11:00,
2013-02-02 20:16:00,26.1,7.6,30.03,South,170,4.6,4.6,45,0.00,BKN,FEW,0.00,0.0,WeatherDisplay:10.37,2013-02-03 01:16:00,
2013-02-02 20:21:00,26.1,7.6,30.03,SW,222,4.6,4.6,45,0.00,BKN,FEW,0.00,0.0,WeatherDisplay:10.37,2013-02-03 01:21:00,
2013-02-02 20:26:00,26.1,7.6,30.03,SW,235,3.5,3.5,45,0.00,BKN,FEW,0.00,0.0,WeatherDisplay:10.37,2013-02-03 01:26:00,
2013-02-02 20:31:00,26.1,7.6,30.03,SW,215,3.5,3.6,45,0.00,BKN,FEW,0.00,0.0,WeatherDisplay:10.37,2013-02-03 01:31:00,
2013-02-02 20:36:00,26.1,7.6,30.03,SSW,212,5.8,5.8,45,0.00,BKN,FEW,0.00,0.0,WeatherDisplay:10.37,2013-02-03 01:36:00,
2013-02-02 20:41:00,26.1,7.6,30.03,SSW,206,0.0,0.0,45,0.00,BKN,FEW,0.00,0.0,WeatherDisplay:10.37,2013-02-03 01:41:00,
2013-02-02 20:46:00,26.1,7.6,30.03,SSW,205,0.0,0.0,45,0.00,BKN,FEW,0.00,0.0,WeatherDisplay:10.37,2013-02-03 01:46:00,
2013-02-02 20:51:00,26.1,7.6,30.03,WSW,246,3.5,3.5,45,0.00,BKN,FEW,0.00,0.0,WeatherDisplay:10.37,2013-02-03 01:51:00,
2013-02-02 20:56:00,26.1,9.0,30.03,WSW,239,0.0,0.0,48,0.00,BKN,FEW,0.00,0.0,WeatherDisplay:10.37,2013-02-03 01:56:00,
2013-02-02 21:01:00,26.1,9.0,30.03,SSW,213,0.0,0.0,48,0.00,BKN,FEW,0.00,0.0,WeatherDisplay:10.37,2013-02-03 02:01:00,
2013-02-02 21:06:00,26.1,9.0,30.03,SSW,212,4.6,4.6,48,0.00,BKN,FEW,0.00,0.0,WeatherDisplay:10.37,2013-02-03 02:06:00,
2013-02-02 21:11:00,26.1,9.0,30.03,SW,235,3.5,3.5,48,0.00,BKN,FEW,0.00,0.0,WeatherDisplay:10.37,2013-02-03 02:11:00,
2013-02-02 21:16:00,26.1,9.0,30.03,SSW,207,3.5,0.0,48,0.00,BKN,FEW,0.00,0.0,WeatherDisplay:10.37,2013-02-03 02:16:00,
2013-02-02 21:21:00,26.1,9.0,30.03,SW,216,0.0,0.0,48,0.00,BKN,FEW,0.00,0.0,WeatherDisplay:10.37,2013-02-03 02:21:00,
2013-02-02 21:26:00,26.1,9.0,30.03,SW,226,0.0,0.0,48,0.00,BKN,FEW,0.00,0.0,WeatherDisplay:10.37,2013-02-03 02:26:00,
2013-02-02 21:31:00,26.1,9.0,30.03,WSW,243,4.6,4.6,48,0.00,BKN,FEW,0.00,0.0,WeatherDisplay:10.37,2013-02-03 02:31:00,
2013-02-02 21:36:00,25.9,8.9,30.03,SW,234,0.0,0.0,48,0.00,BKN,FEW,0.00,0.0,WeatherDisplay:10.37,2013-02-03 02:36:00,
2013-02-02 21:41:00,25.9,8.9,30.03,SSW,212,0.0,0.0,48,0.00,BKN,FEW,0.00,0.0,WeatherDisplay:10.37,2013-02-03 02:41:00,
2013-02-02 21:46:00,25.9,8.9,30.03,SSW,205,0.0,0.0,48,0.00,BKN,FEW,0.00,0.0,WeatherDisplay:10.37,2013-02-03 02:46:00,
2013-02-02 21:51:00,25.9,8.9,30.03,SW,215,0.0,0.0,48,0.00,BKN,FEW,0.00,0.0,WeatherDisplay:10.37,2013-02-03 02:51:00,
2013-02-02 21:56:00,25.9,8.9,30.03,South,177,0.0,0.0,48,0.00,BKN,FEW,0.00,0.0,WeatherDisplay:10.37,2013-02-03 02:56:00,
2013-02-02 22:01:00,25.7,8.7,30.03,WSW,252,0.0,0.0,48,0.00,OVC,FEW,0.00,0.0,WeatherDisplay:10.37,2013-02-03 03:01:00,
2013-02-02 22:06:00,25.7,8.7,30.03,SW,225,0.0,0.0,48,0.00,OVC,FEW,0.00,0.0,WeatherDisplay:10.37,2013-02-03 03:06:00,
2013-02-02 22:11:00,25.7,8.7,30.03,WSW,245,0.0,0.0,48,0.00,OVC,FEW,0.00,0.0,WeatherDisplay:10.37,2013-02-03 03:11:00,
2013-02-02 22:16:00,25.7,8.7,30.03,WSW,242,0.0,0.0,48,0.00,OVC,FEW,0.00,0.0,WeatherDisplay:10.37,2013-02-03 03:16:00,
2013-02-02 22:21:00,25.7,8.7,30.03,SW,224,0.0,0.0,48,0.00,OVC,FEW,0.00,0.0,WeatherDisplay:10.37,2013-02-03 03:21:00,
2013-02-02 22:26:00,25.7,8.7,30.03,SW,227,0.0,0.0,48,0.00,OVC,FEW,0.00,0.0,WeatherDisplay:10.37,2013-02-03 03:26:00,
2013-02-02 22:31:00,25.7,8.7,30.03,SW,236,6.9,6.9,48,0.00,OVC,FEW,0.00,0.0,WeatherDisplay:10.37,2013-02-03 03:31:00,
2013-02-02 22:36:00,25.7,8.7,30.03,SW,236,5.8,5.8,48,0.00,OVC,FEW,0.00,0.0,WeatherDisplay:10.37,2013-02-03 03:36:00,
2013-02-02 22:41:00,25.7,8.7,30.03,SW,225,3.5,0.0,48,0.00,OVC,FEW,0.00,0.0,WeatherDisplay:10.37,2013-02-03 03:41:00,
2013-02-02 22:46:00,25.9,8.9,30.03,WSW,252,8.1,8.1,48,0.00,OVC,FEW,0.00,0.0,WeatherDisplay:10.37,2013-02-03 03:46:00,
2013-02-02 22:51:00,25.9,8.9,30.03,WSW,238,4.6,4.6,48,0.00,OVC,FEW,0.00,0.0,WeatherDisplay:10.37,2013-02-03 03:51:00,
2013-02-02 22:56:00,26.1,9.0,30.03,SW,215,5.8,5.8,48,0.00,OVC,FEW,0.00,0.0,WeatherDisplay:10.37,2013-02-03 03:56:00,
2013-02-02 23:01:00,26.1,9.0,30.03,WSW,238,4.6,4.6,48,0.00,OVC,FEW,0.00,0.0,WeatherDisplay:10.37,2013-02-03 04:01:00,
2013-02-02 23:06:00,26.1,9.0,30.03,WSW,253,9.2,9.2,48,0.00,OVC,FEW,0.00,0.0,WeatherDisplay:10.37,2013-02-03 04:06:00,
2013-02-02 23:11:00,26.1,9.0,30.03,West,261,8.1,8.1,48,0.00,OVC,FEW,0.00,0.0,WeatherDisplay:10.37,2013-02-03 04:11:00,
2013-02-02 23:16:00,25.9,8.9,30.03,WSW,256,6.9,6.9,48,0.00,OVC,FEW,0.00,0.0,WeatherDisplay:10.37,2013-02-03 04:16:00,
2013-02-02 23:21:00,25.9,8.9,30.03,SW,234,5.8,5.8,48,0.00,OVC,FEW,0.00,0.0,WeatherDisplay:10.37,2013-02-03 04:21:00,
2013-02-02 23:26:00,25.7,8.7,30.03,SW,216,9.2,9.2,48,0.00,OVC,FEW,0.00,0.0,WeatherDisplay:10.37,2013-02-03 04:26:00,
2013-02-02 23:31:00,25.7,8.7,30.03,NW,318,10.4,10.4,48,0.00,OVC,FEW,0.00,0.0,WeatherDisplay:10.37,2013-02-03 04:31:00,
2013-02-02 23:36:00,25.5,8.5,30.03,SW,217,10.4,10.4,48,0.00,OVC,FEW,0.00,0.0,WeatherDisplay:10.37,2013-02-03 04:36:00,
2013-02-02 23:41:00,25.5,8.5,30.03,SW,226,8.1,8.1,48,0.00,OVC,FEW,0.00,0.0,WeatherDisplay:10.37,2013-02-03 04:41:00,
2013-02-02 23:46:00,25.3,8.4,30.03,SSW,212,5.8,5.8,48,0.00,OVC,FEW,0.00,0.0,WeatherDisplay:10.37,2013-02-03 04:46:00,
2013-02-02 23:51:00,25.3,8.4,30.03,West,266,9.2,9.2,48,0.00,OVC,FEW,0.00,0.0,WeatherDisplay:10.37,2013-02-03 04:51:00,
2013-02-02 23:56:00,25.2,8.2,30.03,NW,309,8.1,8.1,48,0.00,OVC,FEW,0.00,0.0,WeatherDisplay:10.37,2013-02-03 04:56:00,